[[{"header":{"parameterUnit":"m.s-1","parameterCategory":1,"la1":30.2991,"la2":30.254,"lo1":-89.0895,"lo2":-89.0444,"dy":0.0017,"dx":0.0017,"nx":28,"ny":28,"refTime":"2023-08-12T09:00:00:Z","depth":0,"parameterNumber":2,"parameterNumberName":"U-component_of_WINDS"},"data":[0,0,0,0,0,0,0,0,0,0,0,0,0,0,0,0,0,0,0,0,0,0,0,0,0,0,0,0,0,0,0,0,0,0,0,0,0,0,0,0,0,0,0,0,0,0,0,0,0,0,0,0,0,0,0,0,0,0,3.3608,3.361,0,3.3709,3.371,3.3711,3.3643,3.364,3.3637,3.3634,3.3735,3.374,3.3746,0,0,0,0,0,0,0,0,0,0,0,0,0,3.3354,3.3359,3.3608,3.361,3.3611,3.3709,3.371,3.3711,3.3644,3.364,3.3636,3.3632,3.3733,3.374,3.3746,0,0,0,0,0,0,0,0,0,0,0,0,0,3.3461,3.3361,3.3608,3.3589,3.3588,3.3708,3.371,3.3712,3.3644,3.364,3.3635,3.3631,3.3731,3.3739,3.3747,3.3892,0,0,3.3773,3.3776,0,0,0,0,0,0,0,0,3.3455,3.347,3.359,3.359,3.359,3.3659,3.3657,3.3772,3.3646,3.3623,3.3634,3.3628,3.3713,3.3723,3.3752,3.3896,3.3901,3.3774,3.3779,3.3782,3.3785,0,0,0,0,0,0,0,3.3448,3.3465,3.3648,3.3592,3.3592,3.3574,3.3584,3.3679,3.3693,3.3625,3.362,3.3633,3.3712,3.3744,3.3754,3.3902,3.3773,3.3781,3.3786,3.3789,3.4168,3.4173,0,0,0,0,0,0,3.3442,3.346,3.3645,3.3651,3.351,3.3582,3.3594,3.3641,3.3692,3.3695,3.3637,3.3629,3.3732,3.3744,3.3757,3.3927,3.3782,3.379,3.3795,3.4163,3.4169,3.4174,0,0,0,0,0,0,3.3437,3.3459,3.3641,3.3554,3.3576,3.3592,3.3646,3.3646,3.3677,3.3701,3.3703,3.3667,3.3729,3.3745,3.3858,3.393,3.3794,3.3801,3.4157,3.4165,3.4172,3.427,0,0,0,0,0,0,3.343,3.3458,3.3514,3.3556,3.3581,3.3742,3.365,3.3651,3.3692,3.3683,3.3729,3.3733,3.3726,3.3846,3.3867,3.3939,3.3808,3.415,3.416,3.4169,3.4261,3.428,3.4297,0,0,0,0,0,3.3421,3.3538,3.3517,3.354,3.3651,3.3746,3.376,3.3751,3.3698,3.3754,3.3768,3.3731,3.3919,3.3858,3.3881,3.3957,3.4146,3.4157,3.4168,3.4252,3.4276,3.4297,0,0,0,0,0,0,3.3503,3.3543,3.352,3.3654,3.3697,3.3734,3.3804,3.3777,3.3835,3.3825,3.381,3.3821,3.3939,3.3959,3.3891,3.4098,3.4024,3.404,3.408,3.4103,3.4121,3.4113,3.3815,0,0,0,0,0,3.3537,3.3611,3.3642,3.3757,3.378,3.3788,3.3829,3.3819,3.3862,3.388,3.3903,3.3946,3.4015,3.406,3.4125,3.4264,3.4271,3.4327,3.4345,3.436,3.4373,3.4446,3.447,3.4212,3.4211,3.4211,0,0,3.3607,3.3638,3.3686,3.3774,3.3806,3.3882,3.3804,3.3889,3.3944,3.3893,3.4,3.4019,3.4066,3.4192,3.4249,3.4213,3.4447,3.4374,3.4386,3.4392,3.446,3.4485,3.4506,3.4219,3.4218,3.4217,0,0,3.3773,3.3805,3.3903,3.3937,3.3986,3.3991,3.4015,3.4057,3.4067,3.4175,3.4137,3.4203,3.4322,3.4356,3.439,3.4568,3.4535,3.459,3.4684,3.4755,3.4775,3.4793,3.4855,3.4877,3.4604,3.4604,3.4604,0,3.3853,3.3967,3.3957,3.4044,3.4083,3.404,3.4138,3.4171,3.424,3.4267,3.4226,3.4373,3.4402,3.4534,3.4577,3.4607,3.4632,3.4583,3.4773,3.4791,3.4808,3.4866,3.489,3.461,3.4609,3.4609,3.4608,0,3.4063,3.4143,3.4216,3.4283,3.433,3.4423,3.4424,3.4474,3.4459,3.4468,3.4577,3.4611,3.468,3.4711,3.4698,3.4841,3.4817,3.4775,3.47,3.4839,3.4893,3.4916,3.4619,3.4617,3.4615,3.4613,0,0,3.4282,3.4342,3.4369,3.4398,3.4449,3.451,3.46,3.4668,3.4709,3.4758,3.4831,3.4933,3.4894,3.4931,3.4921,3.4984,3.512,3.4934,3.4935,3.4966,3.5278,3.5308,3.5334,3.51,3.5104,3.5107,3.5273,0,3.445,3.4607,3.4599,3.4745,3.4818,3.4778,3.4856,3.4895,3.4906,3.4968,3.4979,3.505,3.4995,3.5017,3.5077,3.5091,3.5183,3.5079,3.5166,3.5169,3.5153,3.5363,3.5395,3.555,3.5295,3.5298,3.5301,0,3.4666,3.4721,3.4875,3.4914,3.4944,3.5014,3.5075,3.5136,3.5179,3.5182,3.5224,3.5203,3.5292,3.5217,3.5338,3.5268,3.5303,3.5315,3.5321,3.5327,3.5242,3.5372,3.56,3.5622,3.5335,3.5332,3.533,0,3.4807,3.4921,3.5027,3.5053,3.5102,3.5152,3.5175,3.5213,3.5254,3.5308,3.5334,3.5397,3.5431,3.548,3.5476,3.5422,3.5599,3.5523,3.5602,3.5602,3.564,3.5637,3.5874,3.5666,3.5666,3.5666,3.5665,0,3.4994,3.5089,3.5091,3.5156,3.5261,3.5251,3.5354,3.5371,3.5406,3.5472,3.5442,3.5505,3.5498,3.5561,3.5559,3.5658,3.5675,3.5678,3.5676,3.568,3.5679,3.5701,3.569,3.5672,3.567,3.5669,3.5668,0,3.5169,3.5175,3.5288,3.5325,3.5336,3.5411,3.5442,3.5503,3.5511,3.5595,3.5615,3.5627,3.57,3.5701,3.5785,3.5783,3.5904,3.5891,3.5889,3.5886,3.5964,3.5956,3.6221,3.6254,3.6028,3.603,3.6032,0,3.5287,3.5359,3.5403,3.5446,3.5472,3.5541,3.5582,3.5575,3.562,3.5674,3.5728,3.5797,3.5852,3.597,3.5985,3.6048,3.6035,3.6124,3.6044,3.6045,3.6034,3.6028,3.6035,3.6139,3.6141,3.6143,3.6145,0,3.5494,3.5493,3.5554,3.5617,3.5667,3.5716,3.5761,3.5798,3.5795,3.5847,3.592,3.5963,3.6048,3.6116,3.6177,3.6199,3.6171,3.617,3.6191,3.6194,3.619,3.6191,3.5929,3.6163,3.6162,3.616,3.6159,3.6158,3.5642,3.5704,3.5744,3.5813,3.5847,3.5889,3.5948,3.5963,3.6024,3.6093,3.6085,3.6166,3.6206,3.6285,3.6312,3.6375,3.6344,3.6375,3.6382,3.639,3.6397,3.6182,3.6386,3.6385,3.6385,3.6384,3.6384,0,3.5846,3.587,3.5934,3.5997,3.6051,3.6022,3.607,3.6116,3.6188,3.6228,3.6283,3.6367,3.6433,3.6454,3.6518,3.6564,3.6553,3.6581,3.6576,3.6581,3.6422,3.6396,3.6589,3.6589,3.6589,3.6589,3.6589,3.6589,3.5958,3.6059,3.6063,3.618,3.6203,3.6283,3.6313,3.6351,3.6383,3.6478,3.6533,3.6546,3.6578,3.6644,3.6703,3.6707,3.6731,3.6764,3.6763,3.6613,3.6593,3.6573,3.6549,3.677,3.677,3.6916,3.6918,3.6919]},{"header":{"parameterUnit":"m.s-1","parameterCategory":1,"la1":30.2991,"la2":30.254,"lo1":-89.0895,"lo2":-89.0444,"dy":0.0017,"dx":0.0017,"nx":28,"ny":28,"refTime":"2023-08-12T09:00:00:Z","depth":0,"parameterNumber":3,"parameterNumberName":"V-component_of_WINDS"},"data":[0,0,0,0,0,0,0,0,0,0,0,0,0,0,0,0,0,0,0,0,0,0,0,0,0,0,0,0,0,0,0,0,0,0,0,0,0,0,0,0,0,0,0,0,0,0,0,0,0,0,0,0,0,0,0,0,0,0,3.2763,3.2764,0,3.2796,3.2797,3.2797,3.2739,3.2737,3.2735,3.2733,3.2764,3.2766,3.2769,0,0,0,0,0,0,0,0,0,0,0,0,0,3.2646,3.2649,3.2763,3.2764,3.2764,3.2796,3.2797,3.2797,3.2739,3.2737,3.2734,3.2732,3.2763,3.2766,3.2769,0,0,0,0,0,0,0,0,0,0,0,0,0,3.269,3.265,3.2763,3.2739,3.2737,3.2796,3.2797,3.2797,3.2739,3.2737,3.2734,3.2731,3.2762,3.2766,3.277,3.2853,0,0,3.2782,3.2784,0,0,0,0,0,0,0,0,3.2688,3.2694,3.2742,3.2741,3.2739,3.276,3.2767,3.2816,3.274,3.2739,3.2733,3.2729,3.2765,3.2768,3.2781,3.2854,3.2856,3.2782,3.2785,3.2786,3.2787,0,0,0,0,0,0,0,3.2685,3.2693,3.2776,3.2743,3.2741,3.2725,3.2728,3.2776,3.2768,3.2738,3.2734,3.2739,3.2763,3.2777,3.2781,3.2856,3.2782,3.2786,3.2788,3.279,3.2997,3.3,0,0,0,0,0,0,3.2685,3.269,3.2775,3.2777,3.2706,3.273,3.2733,3.2756,3.2767,3.2766,3.2742,3.2736,3.2772,3.2777,3.2782,3.2879,3.2786,3.279,3.2792,3.2994,3.2998,3.3001,0,0,0,0,0,0,3.2683,3.2693,3.2774,3.2733,3.2742,3.2735,3.2762,3.2759,3.2772,3.2769,3.2767,3.2758,3.277,3.2776,3.2835,3.2879,3.2792,3.2795,3.299,3.2995,3.2999,3.3074,0,0,0,0,0,0,3.268,3.2693,3.2725,3.2734,3.2744,3.2828,3.2764,3.2761,3.278,3.2773,3.2784,3.2783,3.2768,3.283,3.2839,3.2883,3.2798,3.2986,3.2992,3.2998,3.3067,3.308,3.3091,0,0,0,0,0,3.2676,3.2745,3.2727,3.2738,3.2785,3.2831,3.2836,3.2819,3.2784,3.2815,3.2813,3.2782,3.2873,3.2836,3.2847,3.2892,3.2983,3.2991,3.2997,3.3062,3.3078,3.3091,0,0,0,0,0,0,3.2741,3.2746,3.2726,3.28,3.2816,3.2821,3.2861,3.2837,3.2862,3.2854,3.2831,3.2833,3.2897,3.29,3.2859,3.2972,3.2922,3.2931,3.2967,3.2982,3.2994,3.2992,3.2802,0,0,0,0,0,3.2764,3.2802,3.2803,3.2869,3.2877,3.2868,3.2887,3.2872,3.2887,3.2893,3.2895,3.2909,3.294,3.2962,3.2991,3.3068,3.3068,3.3104,3.3116,3.3126,3.3134,3.3173,3.3188,3.3024,3.3024,3.3024,0,0,3.2812,3.2819,3.2844,3.2882,3.2892,3.293,3.2874,3.2917,3.2945,3.2899,3.2954,3.2957,3.2971,3.3039,3.3069,3.3044,3.3179,3.3135,3.3143,3.3145,3.3182,3.3197,3.3211,3.3029,3.3028,3.3027,0,0,3.2919,3.2929,3.2983,3.2995,3.3011,3.3004,3.3017,3.3025,3.3025,3.3081,3.3047,3.3079,3.3134,3.3145,3.3158,3.3267,3.3239,3.3277,3.334,3.3379,3.3392,3.3403,3.3441,3.3455,3.3286,3.3286,3.3286,0,3.2976,3.3034,3.3014,3.306,3.3076,3.3037,3.3091,3.3103,3.3127,3.3139,3.3111,3.3178,3.3185,3.3254,3.3281,3.3293,3.3306,3.3276,3.3392,3.3403,3.3413,3.3449,3.3463,3.329,3.329,3.3289,3.3289,0,3.3102,3.3142,3.3184,3.3209,3.3231,3.328,3.3267,3.3291,3.3274,3.3269,3.3325,3.3332,3.3361,3.3377,3.336,3.3443,3.3427,3.3396,3.3345,3.3433,3.3466,3.348,3.3297,3.3295,3.3294,3.3293,0,0,3.3251,3.3264,3.328,3.329,3.3304,3.3334,3.3381,3.341,3.343,3.3448,3.3486,3.3533,3.3504,3.3518,3.3503,3.3537,3.3621,3.3501,3.3501,3.3522,3.3711,3.3734,3.375,3.3603,3.3605,3.3607,3.3709,0,3.3356,3.3438,3.3422,3.3501,3.3537,3.35,3.354,3.3553,3.3549,3.3578,3.3574,3.3607,3.3567,3.3575,3.3608,3.3604,3.3659,3.3597,3.3636,3.3638,3.3633,3.3767,3.3792,3.3888,3.3722,3.3724,3.3726,0,3.349,3.3513,3.3596,3.3603,3.3618,3.3655,3.3679,3.3708,3.372,3.3715,3.3731,3.3709,3.3754,3.3703,3.3764,3.3722,3.3737,3.3738,3.3741,3.3743,3.3687,3.3772,3.3918,3.3932,3.3746,3.3745,3.3743,0,3.3588,3.364,3.3696,3.3706,3.3717,3.3743,3.3748,3.3758,3.3776,3.3797,3.3808,3.3834,3.3847,3.3867,3.3852,3.3816,3.3914,3.3863,3.391,3.3911,3.3932,3.3931,3.4081,3.3944,3.3944,3.3943,3.3943,0,3.3707,3.3759,3.3741,3.3775,3.3832,3.3812,3.3868,3.3868,3.3877,3.391,3.3879,3.3911,3.3889,3.3918,3.3906,3.3957,3.3964,3.396,3.3956,3.3962,3.3963,3.3971,3.3964,3.3947,3.3946,3.3946,3.3945,0,3.3826,3.3817,3.3875,3.388,3.3882,3.3923,3.3927,3.3958,3.3952,3.3994,3.4003,3.3993,3.4026,3.4012,3.4047,3.4039,3.4104,3.4092,3.41,3.4096,3.4144,3.414,3.4305,3.4325,3.4176,3.4177,3.4178,0,3.3902,3.3941,3.395,3.397,3.3978,3.4011,3.4028,3.4009,3.4029,3.4046,3.4075,3.4105,3.4128,3.4181,3.4177,3.4202,3.419,3.4246,3.4193,3.4198,3.4189,3.4186,3.4189,3.4256,3.4258,3.4259,3.426,0,3.4037,3.403,3.4057,3.4083,3.4106,3.4125,3.4141,3.4159,3.4141,3.4164,3.4197,3.4215,3.425,3.4279,3.4302,3.4306,3.428,3.4277,3.4289,3.4295,3.4298,3.4296,3.4127,3.4273,3.4272,3.4271,3.427,3.427,3.4136,3.4168,3.4179,3.4211,3.4221,3.4237,3.4266,3.4264,3.4291,3.4318,3.4305,3.4343,3.4353,3.4381,3.4388,3.4417,3.4395,3.4413,3.4417,3.4422,3.4427,3.4294,3.4421,3.4421,3.442,3.442,3.442,0,3.4268,3.4273,3.4302,3.4326,3.435,3.4324,3.4341,3.4362,3.4396,3.4408,3.4431,3.4469,3.4497,3.4495,3.452,3.4543,3.4532,3.4551,3.4548,3.4549,3.4446,3.4433,3.4559,3.4559,3.4559,3.4559,3.4559,3.4559,3.4339,3.4393,3.4387,3.4444,3.4448,3.4486,3.4497,3.4511,3.452,3.4563,3.4587,3.4585,3.4591,3.4617,3.4641,3.4639,3.465,3.4673,3.4667,3.457,3.4557,3.4543,3.453,3.4675,3.4676,3.4767,3.4768,3.4768]}]]